• In Deutschland
  • Länderverzeichnis
  • Für 7 Tage
  • Wassertemperatur
  • Satellitenkarten
  • Wetterkarte
  • Widgets
  • user-avatar
    Anmelden

    Stündliche Wetter Lichtenfels

    Heute, 17 Juli, Dienstag

    Zeit Temperatur Niederschläge Wind Luftdruck Luftfeuchtigkeit
    00:00 +15°C° 0 mm 0 m/S 734 mmHg 86%
    01:00 +15°C° 0 mm 0 m/S 734 mmHg 86%
    02:00 +14°C° 0 mm 0 m/S 734 mmHg 87%
    03:00 +14°C° 0 mm 0 m/S 734 mmHg 87%
    04:00 +14°C° 0 mm 0 m/S 734 mmHg 88%
    05:00 +15°C° 0 mm 0 m/S 735 mmHg 84%
    06:00 +17°C° 0 mm 0 m/S 735 mmHg 80%
    07:00 +18°C° 0 mm 0 m/S 735 mmHg 77%
    08:00 +22°C° 0,1 mm 1 m/S 735 mmHg 68%
    09:00 +24°C° 0,1 mm 1 m/S 735 mmHg 60%
    10:00 +26°C° 0,1 mm 2 m/S 735 mmHg 52%
    11:00 +27°C° 0 mm 2 m/S 735 mmHg 49%
    12:00 +27°C° 0 mm 3 m/S 735 mmHg 46%
    13:00 +28°C° 0 mm 3 m/S 735 mmHg 44%
    14:00 +28°C° 0 mm 3 m/S 735 mmHg 44%
    15:00 +28°C° 0 mm 3 m/S 735 mmHg 44%
    16:00 +28°C° 0 mm 3 m/S 735 mmHg 45%
    17:00 +27°C° 0 mm 2 m/S 735 mmHg 51%
    18:00 +26°C° 0 mm 2 m/S 735 mmHg 58%
    19:00 +25°C° 0 mm 1 m/S 735 mmHg 64%
    20:00 +23°C° 0 mm 1 m/S 735 mmHg 68%
    21:00 +22°C° 0 mm 1 m/S 735 mmHg 71%
    22:00 +20°C° 0 mm 1 m/S 735 mmHg 75%
    23:00 +19°C° 0 mm 1 m/S 735 mmHg 76%

    Morgen, 18 Juli, Mittwoch

    Zeit Temperatur Niederschläge Wind Luftdruck Luftfeuchtigkeit
    00:00 +19°C° 0 mm 1 m/S 735 mmHg 77%
    01:00 +16°C° 0 mm 0 m/S 735 mmHg 78%
    02:00 +16°C° 0 mm 0 m/S 735 mmHg 80%
    03:00 +16°C° 0 mm 0 m/S 736 mmHg 82%
    04:00 +15°C° 0 mm 0 m/S 736 mmHg 83%
    05:00 +19°C° 0,1 mm 1 m/S 736 mmHg 80%
    06:00 +20°C° 0,1 mm 1 m/S 736 mmHg 77%
    07:00 +22°C° 0,1 mm 1 m/S 737 mmHg 73%
    08:00 +23°C° 0,3 mm 1 m/S 737 mmHg 70%
    09:00 +25°C° 0,3 mm 1 m/S 737 mmHg 66%
    10:00 +26°C° 0,3 mm 2 m/S 737 mmHg 62%
    11:00 +27°C° 0,5 mm 2 m/S 737 mmHg 60%
    12:00 +27°C° 0,5 mm 2 m/S 737 mmHg 59%
    13:00 +28°C° 0,5 mm 2 m/S 737 mmHg 57%
    14:00 +27°C° 0,6 mm 2 m/S 737 mmHg 59%
    15:00 +27°C° 0,6 mm 2 m/S 737 mmHg 61%
    16:00 +27°C° 0,6 mm 2 m/S 737 mmHg 63%
    17:00 +26°C° 0,3 mm 2 m/S 736 mmHg 68%
    18:00 +25°C° 0,3 mm 2 m/S 736 mmHg 73%
    19:00 +24°C° 0,3 mm 2 m/S 736 mmHg 78%
    20:00 +23°C° 0,1 mm 2 m/S 737 mmHg 82%
    21:00 +21°C° 0,1 mm 1 m/S 737 mmHg 86%
    22:00 +19°C° 0,1 mm 1 m/S 737 mmHg 89%
    23:00 +19°C° 0 mm 1 m/S 737 mmHg 90%

    übermorgen, 19 Juli, Donnerstag

    Zeit Temperatur Niederschläge Wind Luftdruck Luftfeuchtigkeit
    00:00 +18°C° 0 mm 1 m/S 737 mmHg 90%
    01:00 +18°C° 0 mm 1 m/S 737 mmHg 90%
    02:00 +16°C° 0 mm 1 m/S 737 mmHg 90%
    03:00 +16°C° 0 mm 1 m/S 737 mmHg 89%
    04:00 +15°C° 0 mm 1 m/S 737 mmHg 89%
    05:00 +16°C° 0 mm 1 m/S 737 mmHg 85%
    06:00 +18°C° 0 mm 1 m/S 738 mmHg 81%
    07:00 +20°C° 0 mm 1 m/S 738 mmHg 77%
    08:00 +22°C° 0 mm 1 m/S 738 mmHg 69%
    09:00 +24°C° 0 mm 1 m/S 738 mmHg 61%
    10:00 +25°C° 0 mm 2 m/S 738 mmHg 53%
    11:00 +26°C° 0 mm 2 m/S 738 mmHg 49%
    12:00 +27°C° 0 mm 2 m/S 738 mmHg 45%
    13:00 +28°C° 0 mm 2 m/S 738 mmHg 41%
    14:00 +28°C° 0 mm 2 m/S 737 mmHg 41%
    15:00 +28°C° 0 mm 2 m/S 737 mmHg 41%
    16:00 +28°C° 0 mm 2 m/S 737 mmHg 40%
    17:00 +27°C° 0 mm 2 m/S 737 mmHg 47%
    18:00 +26°C° 0 mm 2 m/S 737 mmHg 54%
    19:00 +24°C° 0 mm 2 m/S 736 mmHg 61%
    20:00 +23°C° 0 mm 2 m/S 737 mmHg 65%
    21:00 +20°C° 0 mm 2 m/S 737 mmHg 69%
    22:00 +18°C° 0 mm 2 m/S 737 mmHg 73%
    23:00 +17°C° 0 mm 2 m/S 737 mmHg 74%

    20 Juli, Freitag

    Zeit Temperatur Niederschläge Wind Luftdruck Luftfeuchtigkeit
    00:00 +18°C° 0 mm 1 m/S 737 mmHg 74%
    01:00 +16°C° 0 mm 1 m/S 737 mmHg 74%
    02:00 +16°C° 0 mm 1 m/S 736 mmHg 74%
    03:00 +16°C° 0 mm 1 m/S 736 mmHg 74%
    04:00 +15°C° 0 mm 1 m/S 736 mmHg 75%
    05:00 +18°C° 0 mm 1 m/S 736 mmHg 71%
    06:00 +19°C° 0 mm 1 m/S 736 mmHg 68%
    07:00 +21°C° 0 mm 1 m/S 736 mmHg 65%
    08:00 +23°C° 0 mm 1 m/S 736 mmHg 59%
    09:00 +25°C° 0 mm 2 m/S 736 mmHg 53%
    10:00 +27°C° 0 mm 2 m/S 736 mmHg 48%
    11:00 +28°C° 0 mm 1 m/S 736 mmHg 45%
    12:00 +29°C° 0 mm 1 m/S 736 mmHg 42%
    13:00 +31°C° 0 mm 1 m/S 735 mmHg 39%
    14:00 +30°C° 0 mm 1 m/S 735 mmHg 40%
    15:00 +30°C° 0 mm 1 m/S 735 mmHg 42%
    16:00 +29°C° 0 mm 1 m/S 734 mmHg 44%
    17:00 +27°C° 0,1 mm 1 m/S 734 mmHg 53%
    18:00 +26°C° 0,1 mm 1 m/S 734 mmHg 62%
    19:00 +24°C° 0,1 mm 1 m/S 733 mmHg 71%
    20:00 +23°C° 0,7 mm 1 m/S 733 mmHg 75%
    21:00 +22°C° 0,7 mm 1 m/S 733 mmHg 78%
    22:00 +21°C° 0,7 mm 1 m/S 733 mmHg 82%
    23:00 +20°C° 0,8 mm 1 m/S 733 mmHg 85%

    21 Juli, Samstag

    Zeit Temperatur Niederschläge Wind Luftdruck Luftfeuchtigkeit
    00:00 +20°C° 0,8 mm 1 m/S 733 mmHg 87%
    01:00 +20°C° 0,8 mm 1 m/S 733 mmHg 90%
    02:00 +19°C° 0,8 mm 1 m/S 733 mmHg 91%
    03:00 +19°C° 0,8 mm 1 m/S 733 mmHg 93%
    04:00 +18°C° 0,8 mm 1 m/S 732 mmHg 94%
    05:00 +19°C° 0,4 mm 1 m/S 732 mmHg 93%
    06:00 +19°C° 0,4 mm 1 m/S 732 mmHg 93%
    07:00 +20°C° 0,4 mm 1 m/S 732 mmHg 92%
    08:00 +21°C° 0,4 mm 1 m/S 732 mmHg 88%
    09:00 +22°C° 0,4 mm 1 m/S 732 mmHg 84%
    10:00 +23°C° 0,4 mm 1 m/S 732 mmHg 81%
    11:00 +24°C° 1,3 mm 1 m/S 732 mmHg 80%
    12:00 +24°C° 1,3 mm 2 m/S 732 mmHg 78%
    13:00 +25°C° 1,3 mm 2 m/S 732 mmHg 77%
    14:00 +24°C° 1,8 mm 2 m/S 732 mmHg 80%
    15:00 +24°C° 1,8 mm 2 m/S 732 mmHg 82%
    16:00 +22°C° 1,8 mm 3 m/S 732 mmHg 85%
    17:00 +22°C° 1,1 mm 3 m/S 732 mmHg 86%
    18:00 +21°C° 1,1 mm 3 m/S 732 mmHg 88%
    19:00 +20°C° 1,1 mm 3 m/S 732 mmHg 90%
    20:00 +19°C° 0,7 mm 3 m/S 732 mmHg 91%
    21:00 +18°C° 0,7 mm 3 m/S 733 mmHg 93%
    22:00 +17°C° 0,7 mm 3 m/S 733 mmHg 94%
    23:00 +17°C° 0,1 mm 3 m/S 733 mmHg 94%

    22 Juli, Sonntag

    Zeit Temperatur Niederschläge Wind Luftdruck Luftfeuchtigkeit
    00:00 +16°C° 0,1 mm 3 m/S 734 mmHg 95%
    01:00 +16°C° 0,1 mm 3 m/S 734 mmHg 95%
    02:00 +16°C° 0 mm 3 m/S 734 mmHg 95%
    03:00 +14°C° 0 mm 3 m/S 734 mmHg 96%
    04:00 +14°C° 0 mm 2 m/S 735 mmHg 96%
    05:00 +14°C° 0 mm 3 m/S 735 mmHg 94%
    06:00 +14°C° 0 mm 3 m/S 735 mmHg 93%
    07:00 +14°C° 0 mm 3 m/S 736 mmHg 91%
    08:00 +16°C° 0,1 mm 3 m/S 736 mmHg 85%
    09:00 +17°C° 0,1 mm 3 m/S 736 mmHg 80%
    10:00 +18°C° 0,1 mm 4 m/S 736 mmHg 74%
    11:00 +19°C° 0,2 mm 4 m/S 736 mmHg 71%
    12:00 +20°C° 0,2 mm 4 m/S 736 mmHg 67%
    13:00 +20°C° 0,2 mm 4 m/S 736 mmHg 64%
    14:00 +20°C° 0,2 mm 4 m/S 736 mmHg 64%
    15:00 +20°C° 0,2 mm 4 m/S 736 mmHg 64%
    16:00 +20°C° 0,2 mm 4 m/S 737 mmHg 64%
    17:00 +20°C° 0,1 mm 3 m/S 737 mmHg 68%
    18:00 +19°C° 0,1 mm 3 m/S 737 mmHg 71%
    19:00 +19°C° 0,1 mm 2 m/S 737 mmHg 75%
    20:00 +17°C° 0 mm 2 m/S 737 mmHg 81%
    21:00 +16°C° 0 mm 1 m/S 738 mmHg 86%
    22:00 +14°C° 0 mm 1 m/S 738 mmHg 92%
    23:00 +14°C° 0 mm 1 m/S 738 mmHg 92%
    Mehr zeigen